Location: Ústí nad Labem
(50.6611°N, 14.0531°E)
Time: 07:15:24
(UTC+02:00)

S-56A Canister/Altair - Pass Details

Date: 17 April 2024
Orbit: 638 x 2488 km, 38.9° (Epoch: 27 May)

Event Time Altitude Azimuth Distance (km) Brightness Sun altitude
Rises 20:35:06 0° 246° (WSW) 3,689 11.7 -5.6°
Reaches altitude 10° 20:37:34 10° 238° (WSW) 2,941 11.0 -5.9°
Maximum altitude 20:44:14 38° 173° (S) 2,022 9.4 -6.9°
Drops below altitude 10° 20:53:51 10° 111° (ESE) 4,255 10.6 -8.2°
Enters shadow 20:54:18 - 110° (ESE) 4,389 10.7 -8.3°
